FW3800 Weather Reports


Display with metric or nautical units.
time (UTC)temp
F
wind
direction
speed
MPH
gust
MPH
rain 1hr
in
rain 24hr
in
rain mn
in
humidity
%
barometer
mb
20200402105504 38 250 0.0 0.0 0.00 0.00 0.00 91 1016.9
20200402105006 38 250 0.0 0.0 0.00 0.00 0.00 91 1016.8
20200402104503 38 250 0.0 0.0 0.00 0.00 0.00 91 1016.6
20200402103001 38 250 0.0 0.0 0.00 0.00 0.00 91 1016.4
20200402102506 38 250 0.0 0.0 0.00 0.00 0.00 91 1016.3
20200402102101 38 257 0.0 0.0 0.00 0.00 0.00 91 1016.3
20200402101711 38 257 0.0 0.0 0.00 0.00 0.00 91 1016.3
20200402101059 38 258 0.0 0.0 0.00 0.00 0.00 91 1016.2
20200402100559 38 258 0.0 0.0 0.00 0.00 0.00 91 1016.2
20200402100208 39 258 0.0 0.0 0.00 0.00 0.00 91 1016.2
20200402095610 39 258 0.0 0.0 0.00 0.00 0.00 90 1016.0
20200402095058 39 259 0.0 0.0 0.00 0.00 0.00 90 1016.0
20200402094644 39 259 0.0 0.0 0.00 0.00 0.00 90 1016.0
20200402094056 39 259 0.0 0.0 0.00 0.00 0.00 90 1016.0
20200402093133 39 259 0.0 0.0 0.00 0.00 0.00 90 1015.9
20200402092556 39 259 0.0 0.0 0.00 0.00 0.00 90 1015.9
20200402091626 39 259 0.0 0.0 0.00 0.00 0.00 90 1015.9
20200402091056 39 260 0.0 0.0 0.00 0.00 0.00 90 1015.8
20200402090559 39 260 0.0 0.0 0.00 0.00 0.00 90 1015.7
20200402090123 39 260 0.0 0.0 0.00 0.00 0.00 90 1015.8
20200402085556 39 261 0.0 0.0 0.00 0.00 0.00 90 1015.7
20200402085056 39 261 0.0 0.0 0.00 0.00 0.00 90 1015.8
20200402084723 39 261 0.0 0.0 0.00 0.00 0.00 90 1015.9
20200402084054 39 261 0.0 0.0 0.00 0.00 0.00 91 1015.8
20200402083222 39 270 0.0 1.0 0.00 0.00 0.00 90 1015.7
20200402082556 39 270 0.0 0.0 0.00 0.00 0.00 90 1015.8
20200402082104 39 270 0.0 0.0 0.00 0.00 0.00 90 1015.8
20200402081655 40 270 0.0 0.0 0.00 0.00 0.00 90 1015.8
20200402081056 40 270 0.0 2.0 0.00 0.00 0.00 90 1015.8
20200402080556 39 285 0.0 0.0 0.00 0.00 0.00 90 1015.8
20200402080205 39 285 0.0 1.0 0.00 0.00 0.00 90 1015.7
20200402075604 39 285 0.0 1.0 0.00 0.00 0.00 90 1015.7
20200402075055 39 244 0.0 0.0 0.00 0.00 0.00 90 1015.8
20200402074741 39 244 0.0 0.0 0.00 0.00 0.00 91 1015.7
20200402074104 39 244 0.0 0.0 0.00 0.00 0.00 91 1015.7
20200402073257 39 244 0.0 0.0 0.00 0.00 0.00 91 1015.7
20200402072601 39 244 0.0 1.0 0.00 0.00 0.00 91 1015.7
20200402072112 39 244 0.0 1.0 0.00 0.00 0.00 91 1015.7
20200402071706 39 244 0.0 3.0 0.00 0.00 0.00 92 1015.8
20200402071102 39 278 0.0 3.0 0.00 0.00 0.00 92 1015.8
20200402070606 39 13 0.0 0.0 0.00 0.00 0.00 91 1015.8
20200402070403 39 13 0.0 0.0 0.00 0.00 0.00 91 1015.8
20200402065554 39 13 0.0 0.0 0.00 0.00 0.00 91 1015.8
20200402065100 39 13 0.0 0.0 0.00 0.00 0.00 90 1015.9
20200402064057 40 13 0.0 0.0 0.00 0.00 0.00 90 1016.0
20200402063207 40 13 0.0 0.0 0.00 0.00 0.00 90 1015.8
20200402062550 40 13 0.0 0.0 0.00 0.00 0.00 89 1015.9
20200402062104 40 13 0.0 0.0 0.00 0.00 0.00 89 1015.9
20200402061643 40 13 0.0 0.0 0.00 0.00 0.00 89 1015.9
20200402061051 40 13 0.0 0.0 0.00 0.00 0.00 89 1015.8
20200402060548 41 13 0.0 0.0 0.00 0.00 0.00 88 1015.8
20200402060200 41 13 0.0 0.0 0.00 0.03 0.00 88 1015.8
20200402055548 41 13 0.0 0.0 0.00 0.03 0.00 88 1015.8
20200402055104 41 13 0.0 0.0 0.00 0.03 0.00 88 1015.9
20200402054725 41 13 0.0 0.0 0.00 0.03 0.00 88 1015.8
20200402054047 41 13 0.0 0.0 0.00 0.03 0.00 88 1016.0
20200402053136 41 13 0.0 0.0 0.00 0.03 0.00 88 1015.8
20200402052544 41 331 0.0 0.0 0.00 0.03 0.00 88 1015.9
20200402052105 41 331 0.0 0.0 0.00 0.03 0.00 87 1015.8
20200402051619 42 331 0.0 0.0 0.00 0.03 0.00 87 1015.8
20200402051044 42 331 0.0 0.0 0.00 0.03 0.00 87 1015.7
20200402050541 42 331 0.0 1.0 0.00 0.03 0.00 87 1015.8
20200402050206 42 331 0.0 1.0 0.00 0.10 0.00 87 1015.7
20200402045542 42 42 0.0 0.0 0.00 0.10 0.00 87 1015.7
20200402045041 42 42 0.0 0.0 0.00 0.10 0.00 87 1015.7
20200402044549 42 347 0.0 2.0 0.00 0.10 0.00 88 1015.7
20200402044040 42 347 0.0 2.0 0.00 0.10 0.00 88 1015.7
20200402043125 41 41 0.0 2.0 0.00 0.10 0.00 89 1015.8
20200402042542 41 97 0.0 0.0 0.00 0.10 0.00 90 1015.7
20200402042044 41 97 0.0 0.0 0.00 0.10 0.00 90 1015.7
20200402041623 41 97 0.0 0.0 0.00 0.10 0.00 90 1015.8
20200402041040 42 97 0.0 0.0 0.00 0.10 0.00 91 1015.7
20200402040540 42 97 0.0 0.0 0.00 0.10 0.00 91 1015.7
20200402040051 42 140 0.0 0.0 0.00 0.10 0.10 91 1015.8
20200402035546 42 140 0.0 0.0 0.00 0.10 0.10 91 1015.6
20200402035045 42 140 0.0 0.0 0.00 0.10 0.10 91 1015.6
20200402034631 42 140 0.0 0.0 0.00 0.10 0.10 91 1015.6
20200402034037 42 140 0.0 0.0 0.00 0.10 0.10 91 1015.6
20200402033054 42 140 0.0 0.0 0.00 0.10 0.10 91 1015.3
20200402032536 42 140 0.0 0.0 0.00 0.10 0.10 91 1015.3
20200402032041 43 140 0.0 0.0 0.00 0.10 0.10 90 1015.2
20200402031547 43 140 0.0 0.0 0.00 0.10 0.10 91 1015.2
20200402031033 43 140 0.0 0.0 0.00 0.10 0.10 91 1015.0
20200402030536 43 140 0.0 0.0 0.00 0.10 0.10 90 1015.0
20200402030119 43 140 0.0 0.0 0.00 0.10 0.10 90 1014.9
20200402025531 43 140 0.0 0.0 0.00 0.10 0.10 90 1014.9
20200402025030 44 140 0.0 0.0 0.00 0.10 0.10 90 1014.8
20200402024535 44 140 0.0 0.0 0.00 0.10 0.10 89 1014.8
20200402024030 44 140 0.0 0.0 0.00 0.10 0.10 89 1014.9
20200402023058 44 140 0.0 0.0 0.00 0.10 0.10 89 1014.7
20200402022532 44 140 0.0 0.0 0.00 0.10 0.10 90 1014.6
20200402022028 44 140 0.0 0.0 0.00 0.10 0.10 90 1014.5
20200402021636 44 140 0.0 0.0 0.00 0.10 0.10 90 1014.5
20200402021030 44 140 0.0 0.0 0.00 0.10 0.10 90 1014.5
20200402020529 44 140 0.0 0.0 0.00 0.10 0.10 90 1014.4
20200402020110 44 140 0.0 0.0 0.00 0.10 0.10 90 1014.4
20200402015527 45 140 0.0 0.0 0.00 0.10 0.10 90 1014.4
20200402015030 45 140 0.0 0.0 0.00 0.10 0.10 90 1014.4
20200402014541 45 140 0.0 0.0 0.00 0.10 0.10 90 1014.2
20200402014024 45 140 0.0 0.0 0.00 0.10 0.10 90 1014.2
20200402013044 45 140 0.0 0.0 0.00 0.10 0.10 89 1014.1
20200402012522 45 140 0.0 0.0 0.00 0.10 0.10 88 1014.1
20200402012030 45 140 0.0 0.0 0.00 0.10 0.10 87 1014.0
20200402011537 45 140 0.0 0.0 0.00 0.10 0.10 87 1014.0
20200402011023 46 140 0.0 0.0 0.00 0.10 0.10 86 1013.9
20200402010521 46 140 0.0 0.0 0.00 0.10 0.10 86 1013.8
20200402010020 46 140 0.0 0.0 0.00 0.10 0.10 86 1013.7
20200402005519 46 140 0.0 0.0 0.00 0.10 0.10 86 1013.7
20200402005019 46 140 0.0 0.0 0.00 0.10 0.10 85 1013.5
20200402004520 47 140 0.0 0.0 0.00 0.10 0.10 84 1013.3
20200402004018 47 140 0.0 0.0 0.00 0.10 0.10 83 1013.2
20200402003017 47 140 0.0 0.0 0.00 0.10 0.10 82 1013.1
20200402002515 48 140 0.0 0.0 0.00 0.10 0.10 82 1013.0
20200402002019 48 140 0.0 0.0 0.00 0.10 0.10 82 1012.9
20200402001522 48 140 0.0 0.0 0.00 0.10 0.10 82 1012.8
20200402001018 49 140 0.0 0.0 0.00 0.10 0.10 81 1012.8
20200402000515 49 140 0.0 0.0 0.00 0.10 0.10 80 1012.7
20200402000146 50 140 0.0 0.0 0.00 0.10 0.10 80 1012.7
20200401235518 50 140 0.0 0.0 0.00 0.10 0.10 78 1012.7
20200401235014 51 140 0.0 0.0 0.00 0.10 0.10 76 1012.6
20200401234516 51 140 0.0 0.0 0.00 0.10 0.10 76 1012.6
20200401234025 52 140 0.0 0.0 0.00 0.10 0.10 75 1012.5
20200401233024 52 140 0.0 0.0 0.00 0.10 0.10 73 1012.3
20200401232510 53 140 0.0 0.0 0.00 0.10 0.10 72 1012.3
20200401232011 53 140 0.0 0.0 0.00 0.10 0.10 72 1012.3
20200401231510 53 140 0.0 0.0 0.00 0.10 0.10 70 1012.1
20200401231009 54 140 0.0 0.0 0.00 0.10 0.10 69 1012.1
20200401230508 54 140 0.0 0.0 0.00 0.10 0.10 68 1012.0
20200401230009 54 140 0.0 2.0 0.00 0.12 0.10 67 1012.0
20200401225507 54 140 0.0 2.0 0.00 0.12 0.10 64 1012.0
20200401225007 54 121 0.0 2.0 0.00 0.12 0.10 64 1012.0
20200401224508 54 168 0.0 2.0 0.00 0.12 0.10 65 1011.9
20200401224006 54 176 0.0 1.0 0.00 0.12 0.10 63 1011.8
20200401223007 54 123 0.0 0.0 0.00 0.12 0.10 63 1011.7
20200401222508 55 123 0.0 1.0 0.00 0.12 0.10 65 1011.7
20200401222008 55 189 0.0 1.0 0.00 0.12 0.10 61 1011.7
20200401221513 55 190 0.0 1.0 0.00 0.12 0.10 63 1011.6
20200401221005 56 190 0.0 2.0 0.00 0.12 0.10 62 1011.5
20200401220517 56 205 0.0 2.0 0.00 0.12 0.10 60 1011.4
20200401220012 56 40 0.0 2.0 0.00 0.14 0.10 60 1011.4
20200401215504 56 59 0.0 2.0 0.00 0.14 0.10 61 1011.3
20200401215007 56 5 0.0 2.0 0.00 0.14 0.10 62 1011.3
20200401214507 56 344 0.0 5.0 0.00 0.14 0.10 58 1011.4
20200401214004 57 71 1.0 11.0 0.00 0.14 0.10 58 1011.3
20200401213015 58 121 0.0 4.0 0.00 0.14 0.10 58 1011.2
20200401212507 58 211 1.0 5.0 0.00 0.14 0.10 56 1011.1
20200401212006 58 215 1.0 9.0 0.00 0.14 0.10 55 1011.1
20200401211545 58 211 0.0 3.0 0.00 0.14 0.10 59 1011.1
20200401211009 57 317 0.0 7.0 0.00 0.14 0.10 57 1011.0
20200401210506 57 351 0.0 7.0 0.00 0.14 0.10 60 1011.1
20200401210007 58 88 0.0 3.0 0.00 0.18 0.10 59 1011.0
20200401205518 58 59 0.0 5.0 0.00 0.18 0.10 60 1010.9
20200401205004 58 70 0.0 10.0 0.00 0.18 0.10 60 1010.9
20200401204505 58 96 1.0 6.0 0.00 0.18 0.10 59 1011.0
20200401204006 57 75 0.0 3.0 0.00 0.18 0.10 61 1011.0
20200401202501 57 64 1.0 10.0 0.00 0.18 0.10 58 1011.1
20200401202059 58 13 0.0 10.0 0.00 0.18 0.10 57 1011.1
20200401201643 58 176 2.0 7.0 0.00 0.18 0.10 56 1011.0
20200401201100 59 5 1.0 5.0 0.00 0.18 0.10 57 1011.0
20200401200608 60 179 1.0 4.0 0.00 0.18 0.10 56 1011.0
20200401200143 59 270 1.0 4.0 0.00 0.18 0.10 57 1011.0
20200401195559 58 323 1.0 5.0 0.00 0.18 0.10 57 1010.9
20200401195059 59 251 0.0 5.0 0.00 0.18 0.10 57 1011.0
20200401194722 58 162 0.0 7.0 0.00 0.18 0.10 56 1011.1
20200401194059 58 59 2.0 7.0 0.00 0.18 0.10 59 1011.1
20200401193010 58 98 0.0 6.0 0.00 0.18 0.10 57 1011.2
20200401192601 58 40 1.0 4.0 0.00 0.18 0.10 57 1011.1
20200401192505 58 126 0.0 4.0 0.00 0.18 0.10 58 1011.2
20200401192001 59 28 0.0 3.0 0.00 0.18 0.10 57 1011.2
20200401191708 59 191 0.0 9.0 0.00 0.18 0.10 57 1011.0
20200401191501 60 191 0.0 9.0 0.00 0.18 0.10 57 1011.0
20200401191100 60 5 2.0 9.0 0.00 0.18 0.10 60 1011.1
20200401190612 60 75 1.0 10.0 0.00 0.18 0.10 58 1011.1
20200401190240 59 88 1.0 9.0 0.00 0.18 0.10 61 1011.1
20200401185557 59 292 1.0 4.0 0.00 0.18 0.10 60 1011.2
20200401185058 59 109 1.0 6.0 0.00 0.18 0.10 62 1011.3
20200401184711 58 39 1.0 6.0 0.00 0.18 0.10 65 1011.2
20200401184054 56 41 0.0 4.0 0.00 0.18 0.10 70 1011.3
20200401183135 56 135 2.0 7.0 0.00 0.18 0.10 63 1011.2
20200401182605 57 91 1.0 4.0 0.00 0.18 0.10 61 1011.3
20200401182050 57 84 1.0 4.0 0.00 0.18 0.10 67 1011.3
20200401181611 57 119 0.0 4.0 0.00 0.18 0.10 63 1011.3
20200401181053 57 137 0.0 6.0 0.00 0.18 0.10 69 1011.4
20200401180558 56 239 1.0 6.0 0.00 0.18 0.10 66 1011.4
20200401180148 55 24 0.0 7.0 0.00 0.18 0.10 72 1011.4
20200401175547 55 92 1.0 7.0 0.00 0.18 0.10 66 1011.4
20200401175048 56 128 1.0 6.0 0.00 0.18 0.10 65 1011.5
20200401174639 56 218 1.0 8.0 0.00 0.18 0.10 66 1011.4
20200401174053 56 202 0.0 8.0 0.00 0.18 0.10 66 1011.4
20200401173243 54 80 0.0 6.0 0.00 0.18 0.10 74 1011.6
20200401172556 54 125 3.0 7.0 0.00 0.18 0.10 70 1011.6
20200401172051 54 68 1.0 5.0 0.00 0.18 0.10 69 1011.7
20200401171733 54 72 1.0 5.0 0.00 0.18 0.10 73 1011.7
20200401171100 54 70 1.0 8.0 0.00 0.18 0.10 74 1011.6
20200401170544 53 95 2.0 8.0 0.00 0.18 0.10 73 1011.5
20200401170130 52 241 0.0 6.0 0.00 0.18 0.10 74 1011.6
20200401165542 52 41 1.0 7.0 0.00 0.18 0.10 75 1011.6
20200401165044 52 53 0.0 7.0 0.00 0.18 0.10 75 1011.5
20200401164635 51 100 0.0 4.0 0.00 0.18 0.10 74 1011.5
20200401164046 51 79 0.0 6.0 0.00 0.18 0.10 75 1011.5
20200401163102 51 169 0.0 4.0 0.00 0.18 0.10 74 1011.5
20200401162542 51 47 1.0 4.0 0.00 0.18 0.10 73 1011.6
20200401162038 51 63 1.0 5.0 0.00 0.18 0.10 74 1011.6
20200401161609 51 229 0.0 8.0 0.00 0.18 0.10 73 1011.4
20200401161038 51 311 0.0 8.0 0.00 0.18 0.10 72 1011.5
20200401160535 51 51 0.0 3.0 0.00 0.18 0.10 75 1011.6
20200401160124 51 59 0.0 5.0 0.00 0.18 0.10 76 1011.5
20200401155532 50 68 2.0 8.0 0.00 0.18 0.10 76 1011.4
20200401155030 50 87 2.0 8.0 0.00 0.18 0.10 76 1011.4
20200401154645 49 55 0.0 7.0 0.00 0.18 0.10 77 1011.4
20200401154031 49 346 1.0 7.0 0.00 0.18 0.10 76 1011.4
20200401153050 49 105 1.0 5.0 0.00 0.18 0.10 77 1011.4
20200401152529 49 67 1.0 5.0 0.00 0.18 0.10 76 1011.3
20200401152035 49 44 0.0 6.0 0.00 0.18 0.10 77 1011.3
20200401151605 49 61 1.0 8.0 0.00 0.18 0.10 76 1011.2
20200401151027 49 235 2.0 9.0 0.00 0.18 0.10 74 1011.1
20200401150527 49 55 3.0 10.0 0.00 0.18 0.10 74 1011.1
20200401150105 50 135 3.0 10.0 0.00 0.18 0.10 76 1011.0
20200401145528 50 315 2.0 6.0 0.00 0.18 0.10 76 1010.9
20200401145034 50 333 1.0 6.0 0.00 0.18 0.10 77 1010.9
20200401144600 50 71 2.0 11.0 0.00 0.18 0.10 76 1010.7
20200401144025 50 66 3.0 9.0 0.00 0.18 0.10 76 1010.6
20200401143103 50 119 1.0 7.0 0.00 0.18 0.10 76 1010.7
20200401142528 50 69 2.0 7.0 0.00 0.18 0.10 75 1010.5
20200401142032 50 46 0.0 9.0 0.00 0.18 0.10 77 1010.4
20200401141546 50 54 4.0 9.0 0.00 0.18 0.10 77 1010.4
20200401141022 50 55 3.0 6.0 0.00 0.18 0.10 78 1010.3
20200401140523 50 68 3.0 9.0 0.00 0.18 0.10 78 1010.3
20200401140034 49 82 1.0 9.0 0.00 0.18 0.10 81 1010.4
20200401135527 49 68 3.0 7.0 0.00 0.18 0.10 80 1010.2
20200401135020 49 67 1.0 8.0 0.00 0.18 0.10 84 1010.1
20200401134526 48 63 2.0 9.0 0.00 0.18 0.10 83 1009.9
20200401134015 47 91 0.0 9.0 0.00 0.18 0.10 84 1009.8
20200401133027 47 114 1.0 6.0 0.00 0.18 0.10 87 1009.7
20200401132517 46 115 2.0 4.0 0.00 0.18 0.10 87 1009.7
20200401132026 46 135 0.0 5.0 0.00 0.18 0.10 87 1009.7
20200401131538 46 103 1.0 4.0 0.00 0.18 0.10 88 1009.5
20200401131009 46 67 0.0 6.0 0.00 0.18 0.10 88 1009.5
20200401130510 46 55 1.0 4.0 0.00 0.18 0.10 89 1009.4
20200401130013 46 9 0.0 4.0 0.00 0.18 0.10 89 1009.4
20200401125520 45 103 0.0 3.0 0.00 0.18 0.10 89 1009.3
20200401125010 45 96 0.0 4.0 0.00 0.18 0.10 90 1009.3
20200401124511 45 81 0.0 4.0 0.00 0.18 0.10 90 1009.2
20200401124010 45 254 0.0 4.0 0.00 0.18 0.10 92 1009.2
20200401123106 45 278 0.0 2.0 0.00 0.18 0.10 91 1009.1
20200401122505 45 111 0.0 1.0 0.00 0.18 0.10 91 1009.0
20200401122005 45 150 0.0 0.0 0.00 0.18 0.10 91 1009.0
20200401121526 45 248 0.0 5.0 0.00 0.18 0.10 90 1009.0
20200401121005 45 321 0.0 5.0 0.00 0.18 0.10 90 1008.9
20200401120508 45 31 0.0 4.0 0.00 0.18 0.10 89 1008.9
20200401120006 45 22 0.0 4.0 0.00 0.19 0.10 90 1008.8
20200401115513 44 180 0.0 2.0 0.00 0.19 0.10 90 1008.8
20200401115002 44 82 0.0 7.0 0.00 0.19 0.10 90 1008.8
20200401114501 44 96 1.0 7.0 0.00 0.19 0.10 90 1008.8
20200401114059 44 135 0.0 4.0 0.00 0.19 0.10 91 1008.7
20200401113059 44 34 0.0 6.0 0.00 0.19 0.10 90 1008.5
20200401112610 44 84 0.0 4.0 0.00 0.19 0.10 90 1008.4
20200401112056 44 78 0.0 4.0 0.00 0.19 0.10 90 1008.3
20200401111637 44 123 0.0 2.0 0.00 0.19 0.10 91 1008.2
20200401111115 44 74 0.0 2.0 0.00 0.19 0.10 91 1008.2
20200401110557 44 9 0.0 3.0 0.00 0.19 0.10 90 1008.0
20200401110122 44 201 0.0 3.0 0.00 0.19 0.10 91 1007.9